Tracking 35237 objects as of 6-Sep-2026
HD Live streaming from Space Station
objects crossing your sky now

HYPSO-2

Track HYPSO-2 now!
10-day predictions


NORAD ID: 60531
Int'l Code: 2024-149BR
Launch date: August 16, 2024
Source: Norway (NOR)
Launch site: AIR FORCE WESTERN TEST RANGE (AFWTR)
Your satellite tracking list
Your tracking list is empty




NASA's NSSDC Master Catalog

Two Line Element Set (TLE):
1 60531U 24149BR  26249.64077948  .00001329  00000-0  11414-3 0  9992
2 60531  97.6794 324.7100 0003171  75.7629 284.3946 14.99131451112259
Source of the keplerian elements: AFSPC